Location: Santa Clara
(37.3540°N, 121.9540°W)
Time: 23:16:46
(UTC-07:00)

BlueWalker 3 - Pass Details

Date: 27 May 2024
Orbit: 480 x 493 km, 53.2° (Epoch: 23 June)

Event Time Altitude Azimuth Distance (km) Brightness Sun altitude
Exits shadow 05:09:00 - 189° (S) 2,351 4.9 -7.9°
Reaches altitude 10° 05:11:08 10° 174° (S) 1,643 4.3 -7.5°
Maximum altitude 05:13:49 19° 127° (SE) 1,188 4.1 -7.1°
Drops below altitude 10° 05:16:31 10° 80° (E) 1,653 5.8 -6.7°
Sets 05:19:07 0° 62° (ENE) 2,539 8.1 -6.2°
